Back to catalog

COSMOS 1275 DEB

LostPO
NORAD 42135·DEBRIS·🇷🇺 Russia

Launched Jun 4, 1981 from Plesetsk Cosmodrome

Loading…

Next Passes (next 24 hours)

TLE

StaleSource: Space-Track

Epoch: Aug 5, 2024, 07:40 UTC

1 42135U 81053QX  24218.31950504  .00002238  00000-0  23216-2 0  9997
2 42135  83.1175 231.2791 0109821 355.9981   4.0283 13.72640349537425

Track COSMOS 1275 DEB in real time with AllMySat

Download on the App Store